Year,Month,Day,Hour,Minute,Value (Times are PST for temperature in C)
2016,04,20,00,00,13.10
2016,04,20,00,01,13.10
2016,04,20,00,02,13.10
2016,04,20,00,03,13.10
2016,04,20,00,04,13.10
2016,04,20,00,05,13.10
2016,04,20,00,06,13.10
2016,04,20,00,07,13.10
2016,04,20,00,08,13.20
2016,04,20,00,09,13.20
2016,04,20,00,10,13.20
2016,04,20,00,11,13.30
2016,04,20,00,12,13.30
2016,04,20,00,13,13.30
2016,04,20,00,14,13.30
2016,04,20,00,15,13.30
2016,04,20,00,16,13.30
2016,04,20,00,17,13.30
2016,04,20,00,18,13.30
2016,04,20,00,19,13.30
2016,04,20,00,20,13.30
2016,04,20,00,21,13.30
2016,04,20,00,22,13.30
2016,04,20,00,23,13.30
2016,04,20,00,24,13.30
2016,04,20,00,25,13.30
2016,04,20,00,26,13.30
2016,04,20,00,27,13.30
2016,04,20,00,28,13.30
2016,04,20,00,29,13.30
2016,04,20,00,30,13.30
2016,04,20,00,31,13.30
2016,04,20,00,32,13.30
2016,04,20,00,33,13.30
2016,04,20,00,34,13.30
2016,04,20,00,35,13.30
2016,04,20,00,36,13.30
2016,04,20,00,37,13.30
2016,04,20,00,38,13.30
2016,04,20,00,39,13.30
2016,04,20,00,40,13.40
2016,04,20,00,41,13.40
2016,04,20,00,42,13.40
2016,04,20,00,43,13.40
2016,04,20,00,44,13.40
2016,04,20,00,45,13.40
2016,04,20,00,46,13.40
2016,04,20,00,47,13.30
2016,04,20,00,48,13.30
2016,04,20,00,49,13.40
2016,04,20,00,50,13.50
2016,04,20,00,51,13.50
2016,04,20,00,52,13.50
2016,04,20,00,53,13.50
2016,04,20,00,54,13.50
2016,04,20,00,55,13.60
2016,04,20,00,56,13.60
2016,04,20,00,57,13.60
2016,04,20,00,58,13.70
2016,04,20,00,59,13.70
2016,04,20,01,00,13.70
2016,04,20,01,01,13.70
2016,04,20,01,02,13.70
2016,04,20,01,03,13.70
2016,04,20,01,04,13.70
2016,04,20,01,05,13.70
2016,04,20,01,06,13.70
2016,04,20,01,07,13.70
2016,04,20,01,08,13.70
2016,04,20,01,09,13.70
2016,04,20,01,10,13.70
2016,04,20,01,11,13.70
2016,04,20,01,12,13.70
2016,04,20,01,13,13.70
2016,04,20,01,14,13.70
2016,04,20,01,15,13.70
2016,04,20,01,16,13.70
2016,04,20,01,17,13.70
2016,04,20,01,18,13.70
2016,04,20,01,19,13.70
2016,04,20,01,20,13.70
2016,04,20,01,21,13.70
2016,04,20,01,22,13.70
2016,04,20,01,23,13.70
2016,04,20,01,24,13.80
2016,04,20,01,25,13.80
2016,04,20,01,26,13.80
2016,04,20,01,27,13.70
2016,04,20,01,28,13.70
2016,04,20,01,29,13.60
2016,04,20,01,30,13.60
2016,04,20,01,31,13.60
2016,04,20,01,32,13.50
2016,04,20,01,33,13.50
2016,04,20,01,34,13.50
2016,04,20,01,35,13.50
2016,04,20,01,36,13.60
2016,04,20,01,37,13.60
2016,04,20,01,38,13.50
2016,04,20,01,39,13.50
2016,04,20,01,40,13.50
2016,04,20,01,41,13.40
2016,04,20,01,42,13.40
2016,04,20,01,43,13.30
2016,04,20,01,44,13.30
2016,04,20,01,45,13.30
2016,04,20,01,46,13.30
2016,04,20,01,47,13.30
2016,04,20,01,48,13.30
2016,04,20,01,49,13.30
2016,04,20,01,50,13.30
2016,04,20,01,51,13.30
2016,04,20,01,52,13.30
2016,04,20,01,53,13.20
2016,04,20,01,54,13.20
2016,04,20,01,55,13.20
2016,04,20,01,56,13.20
2016,04,20,01,57,13.20
2016,04,20,01,58,13.20
2016,04,20,01,59,13.20
2016,04,20,02,00,13.10
2016,04,20,02,01,13.10
2016,04,20,02,02,13.10
2016,04,20,02,03,13.10
2016,04,20,02,04,13.10
2016,04,20,02,05,13.10
2016,04,20,02,06,13.20
2016,04,20,02,07,13.20
2016,04,20,02,08,13.20
2016,04,20,02,09,13.30
2016,04,20,02,10,13.30
2016,04,20,02,11,13.30
2016,04,20,02,12,13.30
2016,04,20,02,13,13.30
2016,04,20,02,14,13.30
2016,04,20,02,15,13.30
2016,04,20,02,16,13.30
2016,04,20,02,17,13.30
2016,04,20,02,18,13.30
2016,04,20,02,19,13.20
2016,04,20,02,20,13.20
2016,04,20,02,21,13.20
2016,04,20,02,22,13.30
2016,04,20,02,23,13.30
2016,04,20,02,24,13.30
2016,04,20,02,25,13.30
2016,04,20,02,26,13.30
2016,04,20,02,27,13.30
2016,04,20,02,28,13.40
2016,04,20,02,29,13.40
2016,04,20,02,30,13.40
2016,04,20,02,31,13.50
2016,04,20,02,32,13.50
2016,04,20,02,33,13.60
2016,04,20,02,34,13.70
2016,04,20,02,35,13.80
2016,04,20,02,36,13.80
2016,04,20,02,37,13.80
2016,04,20,02,38,13.70
2016,04,20,02,39,13.70
2016,04,20,02,40,13.70
2016,04,20,02,41,13.70
2016,04,20,02,42,13.60
2016,04,20,02,43,13.60
2016,04,20,02,44,13.60
2016,04,20,02,45,13.50
2016,04,20,02,46,13.50
2016,04,20,02,47,13.40
2016,04,20,02,48,13.40
2016,04,20,02,49,13.40
2016,04,20,02,50,13.30
2016,04,20,02,51,13.30
2016,04,20,02,52,13.20
2016,04,20,02,53,13.20
2016,04,20,02,54,13.20
2016,04,20,02,55,13.20
2016,04,20,02,56,13.20
2016,04,20,02,57,13.10
2016,04,20,02,58,13.10
2016,04,20,02,59,13.00
2016,04,20,03,00,12.90
2016,04,20,03,01,12.90
2016,04,20,03,02,12.80
2016,04,20,03,03,12.80
2016,04,20,03,04,12.80
2016,04,20,03,05,12.80
2016,04,20,03,06,12.90
2016,04,20,03,07,12.90
2016,04,20,03,08,12.90
2016,04,20,03,09,12.90
2016,04,20,03,10,12.90
2016,04,20,03,11,12.80
2016,04,20,03,12,12.80
2016,04,20,03,13,12.70
2016,04,20,03,14,12.70
2016,04,20,03,15,12.70
2016,04,20,03,16,12.70
2016,04,20,03,17,12.80
2016,04,20,03,18,12.80
2016,04,20,03,19,12.80
2016,04,20,03,20,12.80
2016,04,20,03,21,12.80
2016,04,20,03,22,12.80
2016,04,20,03,23,12.70
2016,04,20,03,24,12.70
2016,04,20,03,25,12.80
2016,04,20,03,26,12.80
2016,04,20,03,27,12.80
2016,04,20,03,28,12.80
2016,04,20,03,29,12.70
2016,04,20,03,30,12.70
2016,04,20,03,31,12.70
2016,04,20,03,32,12.70
2016,04,20,03,33,12.60
2016,04,20,03,34,12.60
2016,04,20,03,35,12.60
2016,04,20,03,36,12.70
2016,04,20,03,37,12.80
2016,04,20,03,38,12.90
2016,04,20,03,39,13.00
2016,04,20,03,40,13.10
2016,04,20,03,41,13.20
2016,04,20,03,42,13.20
2016,04,20,03,43,13.20
2016,04,20,03,44,13.20
2016,04,20,03,45,13.20
2016,04,20,03,46,13.30
2016,04,20,03,47,13.40
2016,04,20,03,48,13.40
2016,04,20,03,49,13.50
2016,04,20,03,50,13.60
2016,04,20,03,51,13.70
2016,04,20,03,52,13.70
2016,04,20,03,53,13.80
2016,04,20,03,54,13.90
2016,04,20,03,55,14.00
2016,04,20,03,56,14.10
2016,04,20,03,57,14.20
2016,04,20,03,58,14.30
2016,04,20,03,59,14.40
2016,04,20,04,00,14.50
2016,04,20,04,01,14.60
2016,04,20,04,02,14.60
2016,04,20,04,03,14.60
2016,04,20,04,04,14.60
2016,04,20,04,05,14.50
2016,04,20,04,06,14.50
2016,04,20,04,07,14.40
2016,04,20,04,08,14.30
2016,04,20,04,09,14.20
2016,04,20,04,10,14.10
2016,04,20,04,11,14.00
2016,04,20,04,12,14.00
2016,04,20,04,13,13.90
2016,04,20,04,14,13.80
2016,04,20,04,15,13.80
2016,04,20,04,16,13.70
2016,04,20,04,17,13.60
2016,04,20,04,18,13.50
2016,04,20,04,19,13.40
2016,04,20,04,20,13.30
2016,04,20,04,21,13.20
2016,04,20,04,22,13.10
2016,04,20,04,23,13.10
2016,04,20,04,24,13.00
2016,04,20,04,25,13.00
2016,04,20,04,26,12.90
2016,04,20,04,27,12.90
2016,04,20,04,28,12.80
2016,04,20,04,29,12.80
2016,04,20,04,30,12.70
2016,04,20,04,31,12.70
2016,04,20,04,32,12.70
2016,04,20,04,33,12.70
2016,04,20,04,34,12.70
2016,04,20,04,35,12.70
2016,04,20,04,36,12.70
2016,04,20,04,37,12.70
2016,04,20,04,38,12.70
2016,04,20,04,39,12.70
2016,04,20,04,40,12.70
2016,04,20,04,41,12.60
2016,04,20,04,42,12.60
2016,04,20,04,43,12.60
2016,04,20,04,44,12.50
2016,04,20,04,45,12.50
2016,04,20,04,46,12.50
2016,04,20,04,47,12.50
2016,04,20,04,48,12.50
2016,04,20,04,49,12.50
2016,04,20,04,50,12.60
2016,04,20,04,51,12.60
2016,04,20,04,52,12.60
2016,04,20,04,53,12.60
2016,04,20,04,54,12.50
2016,04,20,04,55,12.50
2016,04,20,04,56,12.40
2016,04,20,04,57,12.40
2016,04,20,04,58,12.40
2016,04,20,04,59,12.40
2016,04,20,05,00,12.50
2016,04,20,05,01,12.50
2016,04,20,05,02,12.50
2016,04,20,05,03,12.60
2016,04,20,05,04,12.60
2016,04,20,05,05,12.60
2016,04,20,05,06,12.50
2016,04,20,05,07,12.50
2016,04,20,05,08,12.50
2016,04,20,05,09,12.50
2016,04,20,05,10,12.50
2016,04,20,05,11,12.50
2016,04,20,05,12,12.50
2016,04,20,05,13,12.50
2016,04,20,05,14,12.40
2016,04,20,05,15,12.40
2016,04,20,05,16,12.40
2016,04,20,05,17,12.40
2016,04,20,05,18,12.30
2016,04,20,05,19,12.30
2016,04,20,05,20,12.20
2016,04,20,05,21,12.20
2016,04,20,05,22,12.20
2016,04,20,05,23,12.20
2016,04,20,05,24,12.20
2016,04,20,05,25,12.20
2016,04,20,05,26,12.20
2016,04,20,05,27,12.20
2016,04,20,05,28,12.20
2016,04,20,05,29,12.20
2016,04,20,05,30,12.20
2016,04,20,05,31,12.20
2016,04,20,05,32,12.20
2016,04,20,05,33,12.20
2016,04,20,05,34,12.20
2016,04,20,05,35,12.20
2016,04,20,05,36,12.20
2016,04,20,05,37,12.20
2016,04,20,05,38,12.10
2016,04,20,05,39,12.10
2016,04,20,05,40,12.10
2016,04,20,05,41,12.10
2016,04,20,05,42,12.10
2016,04,20,05,43,12.10
2016,04,20,05,44,12.10
2016,04,20,05,45,12.10
2016,04,20,05,46,12.20
2016,04,20,05,47,12.10
2016,04,20,05,48,12.10
2016,04,20,05,49,12.20
2016,04,20,05,50,12.20
2016,04,20,05,51,12.20
2016,04,20,05,52,12.20
2016,04,20,05,53,12.20
2016,04,20,05,54,12.20
2016,04,20,05,55,12.20
2016,04,20,05,56,12.20
2016,04,20,05,57,12.20
2016,04,20,05,58,12.20
2016,04,20,05,59,12.20
2016,04,20,06,00,12.10
2016,04,20,06,01,12.10
2016,04,20,06,02,12.10
2016,04,20,06,03,12.10
2016,04,20,06,04,12.10
2016,04,20,06,05,12.00
2016,04,20,06,06,12.00
2016,04,20,06,07,12.00
2016,04,20,06,08,12.00
2016,04,20,06,09,11.90
2016,04,20,06,10,11.90
2016,04,20,06,11,11.90
2016,04,20,06,12,11.80
2016,04,20,06,13,11.80
2016,04,20,06,14,11.80
2016,04,20,06,15,11.80
2016,04,20,06,16,11.70
2016,04,20,06,17,11.70
2016,04,20,06,18,11.70
2016,04,20,06,19,11.70
2016,04,20,06,20,11.70
2016,04,20,06,21,11.70
2016,04,20,06,22,11.60
2016,04,20,06,23,11.60
2016,04,20,06,24,11.60
2016,04,20,06,25,11.60
2016,04,20,06,26,11.60
2016,04,20,06,27,11.60
2016,04,20,06,28,11.60
2016,04,20,06,29,11.60
2016,04,20,06,30,11.60
2016,04,20,06,31,11.60
2016,04,20,06,32,11.60
2016,04,20,06,33,11.70
2016,04,20,06,34,11.70
2016,04,20,06,35,11.70
2016,04,20,06,36,11.80
2016,04,20,06,37,11.80
2016,04,20,06,38,11.80
2016,04,20,06,39,11.80
2016,04,20,06,40,11.80
2016,04,20,06,41,11.80
2016,04,20,06,42,11.80
2016,04,20,06,43,11.80
2016,04,20,06,44,11.80
2016,04,20,06,45,11.80
2016,04,20,06,46,11.80
2016,04,20,06,47,11.80
2016,04,20,06,48,11.90
2016,04,20,06,49,11.90
2016,04,20,06,50,11.90
2016,04,20,06,51,11.90
2016,04,20,06,52,11.90
2016,04,20,06,53,11.90
2016,04,20,06,54,11.90
2016,04,20,06,55,11.90
2016,04,20,06,56,11.90
2016,04,20,06,57,12.00
2016,04,20,06,58,12.00
2016,04,20,06,59,12.00
2016,04,20,07,00,12.10
2016,04,20,07,01,12.10
2016,04,20,07,02,12.10
2016,04,20,07,03,12.10
2016,04,20,07,04,12.20
2016,04,20,07,05,12.20
2016,04,20,07,06,12.20
2016,04,20,07,07,12.20
2016,04,20,07,08,12.20
2016,04,20,07,09,12.30
2016,04,20,07,10,12.30
2016,04,20,07,11,12.30
2016,04,20,07,12,12.30
2016,04,20,07,13,12.40
2016,04,20,07,14,12.40
2016,04,20,07,15,12.50
2016,04,20,07,16,12.50
2016,04,20,07,17,12.60
2016,04,20,07,18,12.60
2016,04,20,07,19,12.60
2016,04,20,07,20,12.60
2016,04,20,07,21,12.60
2016,04,20,07,22,12.70
2016,04,20,07,23,12.70
2016,04,20,07,24,12.70
2016,04,20,07,25,12.80
2016,04,20,07,26,12.80
2016,04,20,07,27,12.80
2016,04,20,07,28,12.90
2016,04,20,07,29,12.90
2016,04,20,07,30,12.90
2016,04,20,07,31,13.00
2016,04,20,07,32,13.00
2016,04,20,07,33,13.10
2016,04,20,07,34,13.10
2016,04,20,07,35,13.10
2016,04,20,07,36,13.20
2016,04,20,07,37,13.20
2016,04,20,07,38,13.20
2016,04,20,07,39,13.20
2016,04,20,07,40,13.30
2016,04,20,07,41,13.30
2016,04,20,07,42,13.30
2016,04,20,07,43,13.40
2016,04,20,07,44,13.40
2016,04,20,07,45,13.50
2016,04,20,07,46,13.50
2016,04,20,07,47,13.60
2016,04,20,07,48,13.60
2016,04,20,07,49,13.70
2016,04,20,07,50,13.70
2016,04,20,07,51,13.80
2016,04,20,07,52,13.80
2016,04,20,07,53,13.80
2016,04,20,07,54,13.90
2016,04,20,07,55,13.90
2016,04,20,07,56,14.00
2016,04,20,07,57,14.00
2016,04,20,07,58,14.10
2016,04,20,07,59,14.20
2016,04,20,08,00,14.20
2016,04,20,08,01,14.30
2016,04,20,08,02,14.30
2016,04,20,08,03,14.40
2016,04,20,08,04,14.50
2016,04,20,08,05,14.60
2016,04,20,08,06,14.60
2016,04,20,08,07,14.70
2016,04,20,08,08,14.70
2016,04,20,08,09,14.80
2016,04,20,08,10,14.80
2016,04,20,08,11,14.90
2016,04,20,08,12,14.90
2016,04,20,08,13,15.00
2016,04,20,08,14,15.00
2016,04,20,08,15,15.10
2016,04,20,08,16,15.10
2016,04,20,08,17,15.10
2016,04,20,08,18,15.10
2016,04,20,08,19,15.20
2016,04,20,08,20,15.20
2016,04,20,08,21,15.20
2016,04,20,08,22,15.30
2016,04,20,08,23,15.30
2016,04,20,08,24,15.40
2016,04,20,08,25,15.50
2016,04,20,08,26,15.50
2016,04,20,08,27,15.60
2016,04,20,08,28,15.70
2016,04,20,08,29,15.80
2016,04,20,08,30,15.80
2016,04,20,08,31,15.90
2016,04,20,08,32,16.00
2016,04,20,08,33,16.00
2016,04,20,08,34,16.10
2016,04,20,08,35,16.10
2016,04,20,08,36,16.20
2016,04,20,08,37,16.20
2016,04,20,08,38,16.30
2016,04,20,08,39,16.30
2016,04,20,08,40,16.40
2016,04,20,08,41,16.50
2016,04,20,08,42,16.50
2016,04,20,08,43,16.60
2016,04,20,08,44,16.60
2016,04,20,08,45,16.60
2016,04,20,08,46,16.70
2016,04,20,08,47,16.70
2016,04,20,08,48,16.70
2016,04,20,08,49,16.70
2016,04,20,08,50,16.80
2016,04,20,08,51,16.80
2016,04,20,08,52,16.80
2016,04,20,08,53,16.90
2016,04,20,08,54,16.90
2016,04,20,08,55,17.00
2016,04,20,08,56,17.00
2016,04,20,08,57,17.10
2016,04,20,08,58,17.10
2016,04,20,08,59,17.20
2016,04,20,09,00,17.20
2016,04,20,09,01,17.30
2016,04,20,09,02,17.30
2016,04,20,09,03,17.40
2016,04,20,09,04,17.40
2016,04,20,09,05,17.40
2016,04,20,09,06,17.50
2016,04,20,09,07,17.50
2016,04,20,09,08,17.50
2016,04,20,09,09,17.50
2016,04,20,09,10,17.50
2016,04,20,09,11,17.50
2016,04,20,09,12,17.60
2016,04,20,09,13,17.60
2016,04,20,09,14,17.70
2016,04,20,09,15,17.70
2016,04,20,09,16,17.70
2016,04,20,09,17,17.70
2016,04,20,09,18,17.80
2016,04,20,09,19,17.80
2016,04,20,09,20,17.90
2016,04,20,09,21,17.90
2016,04,20,09,22,18.00
2016,04,20,09,23,18.10
2016,04,20,09,24,18.20
2016,04,20,09,25,18.30
2016,04,20,09,26,18.40
2016,04,20,09,27,18.50
2016,04,20,09,28,18.50
2016,04,20,09,29,18.50
2016,04,20,09,30,18.60
2016,04,20,09,31,18.60
2016,04,20,09,32,18.60
2016,04,20,09,33,18.60
2016,04,20,09,34,18.70
2016,04,20,09,35,18.70
2016,04,20,09,36,18.70
2016,04,20,09,37,18.70
2016,04,20,09,38,18.80
2016,04,20,09,39,18.90
2016,04,20,09,40,19.10
2016,04,20,09,41,19.20
2016,04,20,09,42,19.30
2016,04,20,09,43,19.30
2016,04,20,09,44,19.30
2016,04,20,09,45,19.30
2016,04,20,09,46,19.30
2016,04,20,09,47,19.30
2016,04,20,09,48,19.30
2016,04,20,09,49,19.20
2016,04,20,09,50,19.20
2016,04,20,09,51,19.20
2016,04,20,09,52,19.10
2016,04,20,09,53,19.10
2016,04,20,09,54,19.20
2016,04,20,09,55,19.20
2016,04,20,09,56,19.30
2016,04,20,09,57,19.40
2016,04,20,09,58,19.50
2016,04,20,09,59,19.60
2016,04,20,10,00,19.60
2016,04,20,10,01,19.60
2016,04,20,10,02,19.50
2016,04,20,10,03,19.50
2016,04,20,10,04,19.50
2016,04,20,10,05,19.60
2016,04,20,10,06,19.50
2016,04,20,10,07,19.50
2016,04,20,10,08,19.50
2016,04,20,10,09,19.40
2016,04,20,10,10,19.40
2016,04,20,10,11,19.40
2016,04,20,10,12,19.50
2016,04,20,10,13,19.50
2016,04,20,10,14,19.60
2016,04,20,10,15,19.60
2016,04,20,10,16,19.70
2016,04,20,10,17,19.80
2016,04,20,10,18,19.90
2016,04,20,10,19,20.00
2016,04,20,10,20,20.10
2016,04,20,10,21,20.10
2016,04,20,10,22,20.10
2016,04,20,10,23,20.10
2016,04,20,10,24,20.10
2016,04,20,10,25,20.20
2016,04,20,10,26,20.30
2016,04,20,10,27,20.50
2016,04,20,10,28,20.60
2016,04,20,10,29,20.70
2016,04,20,10,30,20.70
2016,04,20,10,31,20.70
2016,04,20,10,32,20.70
2016,04,20,10,33,20.70
2016,04,20,10,34,20.70
2016,04,20,10,35,20.80
2016,04,20,10,36,20.90
2016,04,20,10,37,20.90
2016,04,20,10,38,21.00
2016,04,20,10,39,21.10
2016,04,20,10,40,21.10
2016,04,20,10,41,21.10
2016,04,20,10,42,21.10
2016,04,20,10,43,21.10
2016,04,20,10,44,21.10
2016,04,20,10,45,21.00
2016,04,20,10,46,21.00
2016,04,20,10,47,20.90
2016,04,20,10,48,20.90
2016,04,20,10,49,20.90
2016,04,20,10,50,20.90
2016,04,20,10,51,21.00
2016,04,20,10,52,21.00
2016,04,20,10,53,20.90
2016,04,20,10,54,20.90
2016,04,20,10,55,21.00
2016,04,20,10,56,21.10
2016,04,20,10,57,21.10
2016,04,20,10,58,21.10
2016,04,20,10,59,21.10
2016,04,20,11,00,21.10
2016,04,20,11,01,21.10
2016,04,20,11,02,21.10
2016,04,20,11,03,21.10
2016,04,20,11,04,21.10
2016,04,20,11,05,21.10
2016,04,20,11,06,21.10
2016,04,20,11,07,21.10
2016,04,20,11,08,21.10
2016,04,20,11,09,21.20
2016,04,20,11,10,21.20
2016,04,20,11,11,21.20
2016,04,20,11,12,21.20
2016,04,20,11,13,21.20
2016,04,20,11,14,21.10
2016,04,20,11,15,21.10
2016,04,20,11,16,21.00
2016,04,20,11,17,21.00
2016,04,20,11,18,20.90
2016,04,20,11,19,21.00
2016,04,20,11,20,21.10
2016,04,20,11,21,21.10
2016,04,20,11,22,21.10
2016,04,20,11,23,21.10
2016,04,20,11,24,21.10
2016,04,20,11,25,21.10
2016,04,20,11,26,21.10
2016,04,20,11,27,21.10
2016,04,20,11,28,21.00
2016,04,20,11,29,21.00
2016,04,20,11,30,21.00
2016,04,20,11,31,21.00
2016,04,20,11,32,21.10
2016,04,20,11,33,21.20
2016,04,20,11,34,21.30
2016,04,20,11,35,21.40
2016,04,20,11,36,21.50
2016,04,20,11,37,21.50
2016,04,20,11,38,21.50
2016,04,20,11,39,21.50
2016,04,20,11,40,21.50
2016,04,20,11,41,21.50
2016,04,20,11,42,21.50
2016,04,20,11,43,21.50
2016,04,20,11,44,21.60
2016,04,20,11,45,21.70
2016,04,20,11,46,21.80
2016,04,20,11,47,21.70
2016,04,20,11,48,21.70
2016,04,20,11,49,21.60
2016,04,20,11,50,21.60
2016,04,20,11,51,21.60
2016,04,20,11,52,21.70
2016,04,20,11,53,21.70
2016,04,20,11,54,21.70
2016,04,20,11,55,21.70
2016,04,20,11,56,21.70
2016,04,20,11,57,21.70
2016,04,20,11,58,21.60
2016,04,20,11,59,21.50
2016,04,20,12,00,21.50
2016,04,20,12,01,21.50
2016,04,20,12,02,21.40
2016,04,20,12,03,21.50
2016,04,20,12,04,21.50
2016,04,20,12,05,21.40
2016,04,20,12,06,21.40
2016,04,20,12,07,21.40
2016,04,20,12,08,21.40
2016,04,20,12,09,21.40
2016,04,20,12,10,21.40
2016,04,20,12,11,21.30
2016,04,20,12,12,21.40
2016,04,20,12,13,21.40
2016,04,20,12,14,21.50
2016,04,20,12,15,21.60
2016,04,20,12,16,21.70
2016,04,20,12,17,21.70
2016,04,20,12,18,21.70
2016,04,20,12,19,21.70
2016,04,20,12,20,21.80
2016,04,20,12,21,21.80
2016,04,20,12,22,21.80
2016,04,20,12,23,21.80
2016,04,20,12,24,21.80
2016,04,20,12,25,21.90
2016,04,20,12,26,21.90
2016,04,20,12,27,21.90
2016,04,20,12,28,21.90
2016,04,20,12,29,21.90
2016,04,20,12,30,21.80
2016,04,20,12,31,21.80
2016,04,20,12,32,21.80
2016,04,20,12,33,21.80
2016,04,20,12,34,21.80
2016,04,20,12,35,21.80
2016,04,20,12,36,21.90
2016,04,20,12,37,21.90
2016,04,20,12,38,22.00
2016,04,20,12,39,22.10
2016,04,20,12,40,22.10
2016,04,20,12,41,22.20
2016,04,20,12,42,22.30
2016,04,20,12,43,22.30
2016,04,20,12,44,22.30
2016,04,20,12,45,22.30
2016,04,20,12,46,22.30
2016,04,20,12,47,22.40
2016,04,20,12,48,22.40
2016,04,20,12,49,22.50
2016,04,20,12,50,22.60
2016,04,20,12,51,22.70
2016,04,20,12,52,22.80
2016,04,20,12,53,22.80
2016,04,20,12,54,22.80
2016,04,20,12,55,22.90
2016,04,20,12,56,22.90
2016,04,20,12,57,22.90
2016,04,20,12,58,22.90
2016,04,20,12,59,22.90
2016,04,20,13,00,22.90
2016,04,20,13,01,22.80
2016,04,20,13,02,22.80
2016,04,20,13,03,22.80
2016,04,20,13,04,22.80
2016,04,20,13,05,22.80
2016,04,20,13,06,22.80
2016,04,20,13,07,22.90
2016,04,20,13,08,22.90
2016,04,20,13,09,23.00
2016,04,20,13,10,23.00
2016,04,20,13,11,23.10
2016,04,20,13,12,23.10
2016,04,20,13,13,23.00
2016,04,20,13,14,23.00
2016,04,20,13,15,22.90
2016,04,20,13,16,22.90
2016,04,20,13,17,23.00
2016,04,20,13,18,23.00
2016,04,20,13,19,23.00
2016,04,20,13,20,23.10
2016,04,20,13,21,23.10
2016,04,20,13,22,23.00
2016,04,20,13,23,22.90
2016,04,20,13,24,22.90
2016,04,20,13,25,22.90
2016,04,20,13,26,22.90
2016,04,20,13,27,22.80
2016,04,20,13,28,22.80
2016,04,20,13,29,22.90
2016,04,20,13,30,23.00
2016,04,20,13,31,23.00
2016,04,20,13,32,23.10
2016,04,20,13,33,23.20
2016,04,20,13,34,23.30
2016,04,20,13,35,23.20
2016,04,20,13,36,23.20
2016,04,20,13,37,23.20
2016,04,20,13,38,23.30
2016,04,20,13,39,23.30
2016,04,20,13,40,23.30
2016,04,20,13,41,23.40
2016,04,20,13,42,23.40
2016,04,20,13,43,23.50
2016,04,20,13,44,23.60
2016,04,20,13,45,23.70
2016,04,20,13,46,23.80
2016,04,20,13,47,23.80
2016,04,20,13,48,23.80
2016,04,20,13,49,23.80
2016,04,20,13,50,23.80
2016,04,20,13,51,23.90
2016,04,20,13,52,24.00
2016,04,20,13,53,24.10
2016,04,20,13,54,24.20
2016,04,20,13,55,24.10
2016,04,20,13,56,24.00
2016,04,20,13,57,23.90
2016,04,20,13,58,23.90
2016,04,20,13,59,23.90
2016,04,20,14,00,23.90
2016,04,20,14,01,24.00
2016,04,20,14,02,24.00
2016,04,20,14,03,24.00
2016,04,20,14,04,24.10
2016,04,20,14,05,24.10
2016,04,20,14,06,24.10
2016,04,20,14,07,24.00
2016,04,20,14,08,24.00
2016,04,20,14,09,24.00
2016,04,20,14,10,24.00
2016,04,20,14,11,24.00
2016,04,20,14,12,23.90
2016,04,20,14,13,23.90
2016,04,20,14,14,23.90
2016,04,20,14,15,23.90
2016,04,20,14,16,23.80
2016,04,20,14,17,23.80
2016,04,20,14,18,23.80
2016,04,20,14,19,23.80
2016,04,20,14,20,23.80
2016,04,20,14,21,23.90
2016,04,20,14,22,24.00
2016,04,20,14,23,24.10
2016,04,20,14,24,24.00
2016,04,20,14,25,24.00
2016,04,20,14,26,24.00
2016,04,20,14,27,23.90
2016,04,20,14,28,23.90
2016,04,20,14,29,23.90
2016,04,20,14,30,23.90
2016,04,20,14,31,24.00
2016,04,20,14,32,24.10
2016,04,20,14,33,24.10
2016,04,20,14,34,24.10
2016,04,20,14,35,24.20
2016,04,20,14,36,24.20
2016,04,20,14,37,24.20
2016,04,20,14,38,24.20
2016,04,20,14,39,24.30
2016,04,20,14,40,24.40
2016,04,20,14,41,24.50
2016,04,20,14,42,24.50
2016,04,20,14,43,24.50
2016,04,20,14,44,24.50
2016,04,20,14,45,24.60
2016,04,20,14,46,24.60
2016,04,20,14,47,24.60
2016,04,20,14,48,24.60
2016,04,20,14,49,24.60
2016,04,20,14,50,24.60
2016,04,20,14,51,24.60
2016,04,20,14,52,24.60
2016,04,20,14,53,24.60
2016,04,20,14,54,24.70
2016,04,20,14,55,24.70
2016,04,20,14,56,24.70
2016,04,20,14,57,24.70
2016,04,20,14,58,24.80
2016,04,20,14,59,24.80
2016,04,20,15,00,24.80
2016,04,20,15,01,24.80
2016,04,20,15,02,24.80
2016,04,20,15,03,24.80
2016,04,20,15,04,24.70
2016,04,20,15,05,24.70
2016,04,20,15,06,24.70
2016,04,20,15,07,24.70
2016,04,20,15,08,24.70
2016,04,20,15,09,24.70
2016,04,20,15,10,24.70
2016,04,20,15,11,24.80
2016,04,20,15,12,24.80
2016,04,20,15,13,24.80
2016,04,20,15,14,24.80
2016,04,20,15,15,24.90
2016,04,20,15,16,24.80
2016,04,20,15,17,24.80
2016,04,20,15,18,24.70
2016,04,20,15,19,24.70
2016,04,20,15,20,24.60
2016,04,20,15,21,24.50
2016,04,20,15,22,24.50
2016,04,20,15,23,24.40
2016,04,20,15,24,24.40
2016,04,20,15,25,24.40
2016,04,20,15,26,24.40
2016,04,20,15,27,24.40
2016,04,20,15,28,24.40
2016,04,20,15,29,24.50
2016,04,20,15,30,24.50
2016,04,20,15,31,24.60
2016,04,20,15,32,24.60
2016,04,20,15,33,24.70
2016,04,20,15,34,24.70
2016,04,20,15,35,24.70
2016,04,20,15,36,24.70
2016,04,20,15,37,24.70
2016,04,20,15,38,24.70
2016,04,20,15,39,24.60
2016,04,20,15,40,24.60
2016,04,20,15,41,24.70
2016,04,20,15,42,24.70
2016,04,20,15,43,24.70
2016,04,20,15,44,24.70
2016,04,20,15,45,24.80
2016,04,20,15,46,24.80
2016,04,20,15,47,24.80
2016,04,20,15,48,24.80
2016,04,20,15,49,24.80
2016,04,20,15,50,24.80
2016,04,20,15,51,24.70
2016,04,20,15,52,24.70
2016,04,20,15,53,24.70
2016,04,20,15,54,24.70
2016,04,20,15,55,24.70
2016,04,20,15,56,24.70
2016,04,20,15,57,24.70
2016,04,20,15,58,24.70
2016,04,20,15,59,24.80
2016,04,20,16,00,24.80
2016,04,20,16,01,24.80
2016,04,20,16,02,24.80
2016,04,20,16,03,24.80
2016,04,20,16,04,24.80
2016,04,20,16,05,24.80
2016,04,20,16,06,24.80
2016,04,20,16,07,24.80
2016,04,20,16,08,24.80
2016,04,20,16,09,24.80
2016,04,20,16,10,24.80
2016,04,20,16,11,24.80
2016,04,20,16,12,24.90
2016,04,20,16,13,24.90
2016,04,20,16,14,24.90
2016,04,20,16,15,24.90
2016,04,20,16,16,24.90
2016,04,20,16,17,24.90
2016,04,20,16,18,24.90
2016,04,20,16,19,24.90
2016,04,20,16,20,24.90
2016,04,20,16,21,24.90
2016,04,20,16,22,24.90
2016,04,20,16,23,24.90
2016,04,20,16,24,24.90
2016,04,20,16,25,24.90
2016,04,20,16,26,24.90
2016,04,20,16,27,24.90
2016,04,20,16,28,24.90
2016,04,20,16,29,24.90
2016,04,20,16,30,24.90
2016,04,20,16,31,24.80
2016,04,20,16,32,24.90
2016,04,20,16,33,24.90
2016,04,20,16,34,24.90
2016,04,20,16,35,24.90
2016,04,20,16,36,24.90
2016,04,20,16,37,24.90
2016,04,20,16,38,24.90
2016,04,20,16,39,24.90
2016,04,20,16,40,24.90
2016,04,20,16,41,24.90
2016,04,20,16,42,24.90
2016,04,20,16,43,24.80
2016,04,20,16,44,24.80
2016,04,20,16,45,24.70
2016,04,20,16,46,24.70
2016,04,20,16,47,24.70
2016,04,20,16,48,24.70
2016,04,20,16,49,24.70
2016,04,20,16,50,24.70
2016,04,20,16,51,24.60
2016,04,20,16,52,24.70
2016,04,20,16,53,24.70
2016,04,20,16,54,24.70
2016,04,20,16,55,24.80
2016,04,20,16,56,24.80
2016,04,20,16,57,24.70
2016,04,20,16,58,24.70
2016,04,20,16,59,24.60
2016,04,20,17,00,24.50
2016,04,20,17,01,24.40
2016,04,20,17,02,24.40
2016,04,20,17,03,24.30
2016,04,20,17,04,24.30
2016,04,20,17,05,24.30
2016,04,20,17,06,24.30
2016,04,20,17,07,24.30
2016,04,20,17,08,24.30
2016,04,20,17,09,24.30
2016,04,20,17,10,24.30
2016,04,20,17,11,24.30
2016,04,20,17,12,24.30
2016,04,20,17,13,24.30
2016,04,20,17,14,24.30
2016,04,20,17,15,24.30
2016,04,20,17,16,24.30
2016,04,20,17,17,24.30
2016,04,20,17,18,24.30
2016,04,20,17,19,24.30